GFSMW_850_spd_114.txt.gz
Wind_Speed
18 19 20 22 21 22 21 13 13 15 24 27 28 27 31 32 32 33 32 36 30 30 28 27 25 28 28 27 25 25 24 25 19 26 27 31 30 29 26 24 23 22 23
17 18 21 23 19 13 10 11 13 16 17 24 29 29 31 32 34 33 33 27 26 28 28 28 27 27 26 26 24 22 22 25 22 25 30 23 27 29 24 26 26 26 24
22 22 24 20 15 10 10 12 16 18 21 25 26 25 31 37 40 38 34 29 31 29 29 25 28 27 29 28 26 23 25 25 28 27 26 18 14 34 29 24 27 26 25
19 19 18 16 10 9 8 12 12 15 18 22 28 31 38 41 41 39 35 34 32 29 30 24 26 26 27 28 27 26 25 24 28 27 35 32 30 33 25 30 25 24 26
26 15 13 10 10 8 10 7 10 13 14 19 26 33 38 38 34 30 32 37 33 33 30 28 30 27 26 24 25 27 26 23 29 34 42 32 30 34 36 29 25 27 27
14 10 10 7 4 7 6 9 10 12 14 16 21 31 35 36 32 28 26 31 36 34 32 31 31 27 25 25 26 22 23 26 25 36 43 40 38 35 35 32 31 28 28
12 8 8 6 0 4 7 4 10 16 14 18 22 24 30 34 29 28 29 27 35 37 36 33 32 28 26 27 24 25 24 25 29 33 49 46 37 39 35 34 30 26 25
12 8 7 6 6 10 12 15 17 15 22 19 22 29 32 32 30 30 30 33 32 33 32 31 31 28 26 24 23 23 25 24 31 34 50 38 41 32 31 31 34 26 23
14 10 9 7 7 10 14 20 23 21 24 26 22 30 35 34 33 34 26 36 29 23 28 29 28 28 29 24 22 23 27 25 31 33 41 49 47 42 34 33 30 31 24
11 7 6 8 8 12 18 24 25 24 28 29 28 31 36 32 30 38 29 32 30 27 26 24 26 27 29 25 25 21 23 26 28 33 39 39 44 42 32 32 26 28 27
20 16 11 10 11 14 23 27 31 33 25 25 28 33 36 31 32 37 28 30 28 25 27 22 23 28 26 25 23 23 22 24 27 31 40 40 37 37 33 37 26 24 22
15 15 14 15 17 19 23 30 33 34 24 22 14 31 31 27 31 36 30 33 30 26 24 20 22 25 23 23 22 22 19 25 27 29 40 43 43 45 38 34 36 33 22
18 17 18 20 19 21 24 30 32 33 25 20 19 26 28 27 35 35 29 33 25 24 23 20 19 20 23 23 23 22 20 23 26 30 34 41 46 49 49 47 40 39 34
21 21 21 21 21 22 24 30 33 31 24 19 22 26 25 25 34 31 30 33 24 25 23 23 21 16 15 18 21 22 24 21 23 30 35 40 42 45 42 42 40 37 34
18 19 21 24 24 25 29 32 34 31 22 18 20 24 23 23 30 32 31 28 26 27 24 23 19 15 13 16 19 19 18 19 21 28 36 33 36 37 38 40 38 40 33
16 18 19 22 22 26 30 33 35 31 20 18 20 22 23 24 30 32 29 25 27 26 22 20 18 15 13 11 13 16 17 16 15 17 21 25 29 33 33 30 36 41 39
15 16 17 20 21 24 27 30 31 28 21 16 18 21 22 27 30 28 28 28 28 25 23 22 18 15 11 10 8 10 10 12 12 12 14 17 26 25 26 26 28 34 35
14 15 17 21 19 21 24 25 25 22 17 8 15 22 24 30 26 29 27 27 30 24 20 17 17 15 13 10 9 9 9 8 9 9 9 11 13 16 21 23 27 28 29
13 13 14 17 16 20 22 24 22 21 14 3 11 21 24 29 27 28 27 26 25 25 23 20 18 16 16 13 11 10 10 9 8 8 9 10 10 9 13 17 22 29 30
12 13 14 17 18 22 24 27 26 24 21 16 7 8 25 27 30 29 28 28 26 26 25 23 21 20 17 14 13 11 10 10 11 12 10 11 12 13 13 16 19 24 29
13 14 15 19 21 23 25 29 30 27 22 17 13 5 16 27 32 32 31 30 25 25 24 23 22 21 17 16 15 15 16 15 14 14 15 14 16 20 22 22 22 25 31
16 17 18 19 20 21 25 28 29 24 21 20 19 17 12 9 25 32 30 27 25 25 26 25 24 21 18 17 15 16 17 17 18 19 20 22 23 21 18 22 24 27 27
18 18 18 19 20 22 23 25 22 22 23 22 23 22 21 17 15 22 30 32 31 30 25 21 18 15 12 10 13 14 14 17 19 19 18 17 15 13 12 11 14 17 15
20 18 19 21 22 22 20 19 19 20 22 24 22 24 25 24 22 21 22 18 21 24 21 20 17 15 14 12 6 8 7 9 9 12 12 8 7 7 11 14 14 13 12
18 18 20 21 21 21 20 18 18 18 21 24 26 26 26 31 31 30 28 23 22 20 22 21 20 17 18 18 16 15 15 15 16 17 17 20 20 21 20 19 18 16 15
14 17 19 20 21 20 20 21 20 18 21 23 25 26 26 28 29 31 34 32 29 27 26 24 23 27 26 23 22 22 23 22 21 22 24 24 23 23 22 21 21 17 15

GFSMW_850_spd_117.txt.gz
Wind_Speed
46 44 40 34 31 28 36 35 34 39 40 37 32 27 24 28 34 36 33 33 30 28 30 32 29 27 27 27 27 27 27 28 25 23 21 22 19 22 28 31 30 24 23
32 44 44 37 31 24 24 19 14 29 32 29 27 26 21 23 30 31 34 35 35 32 28 32 35 32 30 28 26 27 29 28 26 24 22 17 24 27 34 37 33 26 24
22 20 25 28 26 24 23 20 16 12 13 15 19 23 23 24 30 31 36 38 37 35 31 33 36 35 33 33 28 28 28 30 28 29 20 9 12 26 31 34 33 27 25
24 19 13 26 27 23 22 19 16 16 14 8 24 26 29 32 35 37 38 37 35 31 30 31 32 35 36 35 29 27 28 27 28 28 30 26 15 21 19 29 35 30 30
23 17 17 25 12 9 10 9 12 13 13 15 12 18 31 33 36 36 40 39 34 33 34 33 32 32 34 35 31 29 28 28 29 29 30 31 32 28 31 26 33 36 31
9 22 24 21 21 19 16 12 9 5 5 7 12 20 19 32 38 38 39 35 31 40 38 36 36 34 33 31 31 28 30 29 29 29 29 30 37 38 43 35 39 38 33
24 29 30 23 19 16 14 11 6 4 10 15 12 15 19 26 35 37 36 33 28 34 47 42 39 36 35 30 28 27 28 30 27 29 30 30 41 38 41 35 31 35 32
33 28 20 16 14 9 5 3 5 10 15 21 24 25 19 22 32 31 30 30 30 30 34 43 41 36 35 31 28 28 29 27 28 25 29 28 41 38 45 43 42 29 29
31 26 21 18 12 10 13 16 16 20 22 23 26 29 31 25 32 34 31 31 31 33 30 34 38 36 35 32 29 30 29 27 28 23 30 30 42 37 40 44 48 39 23
34 30 25 18 10 9 13 18 23 26 27 28 29 28 29 31 28 36 35 30 37 33 33 29 33 36 34 33 29 32 29 26 28 26 26 32 36 35 37 37 36 37 33
30 24 18 12 8 8 13 18 22 26 29 30 30 28 29 30 33 35 35 31 33 31 34 32 28 32 32 31 31 28 28 29 26 25 25 27 28 34 37 32 33 38 35
23 18 13 12 12 14 17 21 26 26 30 31 30 25 22 21 29 32 29 33 33 35 32 27 25 27 32 32 33 29 30 27 26 26 25 27 26 36 39 35 35 34 31
22 18 18 20 19 21 24 25 27 30 32 32 27 23 20 22 28 24 25 34 33 37 31 27 26 26 27 31 31 27 27 26 24 25 24 26 29 33 32 38 34 35 29
23 22 22 21 23 24 26 29 31 34 35 34 25 22 22 23 22 24 28 34 35 35 28 26 24 25 26 28 28 29 25 23 20 23 25 27 33 33 35 37 39 40 34
19 23 25 25 26 26 28 31 34 37 37 34 26 21 20 23 23 24 29 31 38 32 29 25 25 24 21 25 28 27 24 22 21 20 23 23 28 30 38 40 42 40 37
26 25 22 24 25 26 30 33 35 38 37 34 29 22 19 22 23 24 30 35 36 30 26 26 25 23 21 22 23 23 23 20 18 20 23 25 30 28 28 34 39 43 40
18 19 20 24 25 27 28 30 33 34 34 31 27 22 19 23 24 24 30 36 34 27 29 27 24 21 18 18 21 22 21 20 19 17 17 18 20 21 28 32 34 27 29
16 17 20 23 24 25 26 27 28 28 28 27 24 21 15 21 21 24 28 37 28 32 27 26 23 20 18 17 18 18 17 16 14 15 14 15 15 17 18 23 30 29 27
13 14 16 20 21 24 24 25 27 26 26 25 21 19 11 20 21 31 36 34 34 30 30 26 26 24 21 18 18 17 17 15 15 15 14 12 14 14 15 16 20 20 21
14 14 15 17 19 21 22 23 27 26 25 23 21 19 15 13 22 30 31 34 34 33 31 31 28 26 24 20 20 18 18 17 16 16 14 14 14 14 15 16 18 19 20
16 15 14 17 17 18 21 23 26 25 24 20 19 17 12 5 18 31 33 33 35 34 34 35 33 30 24 21 21 20 19 17 17 17 16 15 13 14 14 13 14 17 19
17 16 16 16 17 17 20 23 25 24 21 20 19 20 17 7 4 27 33 34 34 36 35 32 29 27 25 24 23 21 19 18 17 18 18 18 16 16 17 18 22 23 25
17 16 16 16 17 18 20 22 24 23 22 21 22 22 22 19 12 10 29 34 37 38 34 30 27 24 23 24 25 25 24 23 23 21 20 18 17 18 18 18 20 22 22
17 16 16 17 18 19 19 20 21 22 23 26 23 23 26 27 26 21 18 18 25 31 29 25 23 22 19 18 20 22 22 21 17 17 16 12 12 12 12 15 15 14 15
15 14 16 17 18 19 20 20 20 19 22 24 25 25 27 31 33 34 31 26 24 21 20 21 23 24 25 21 19 18 19 19 19 17 17 17 20 20 19 19 18 17 16
12 13 14 15 17 17 19 20 19 18 19 22 23 25 26 29 33 34 36 36 33 31 30 28 25 29 31 26 26 24 23 22 20 22 23 24 23 24 23 22 22 20 18

GFSMW_850_spd_120.txt.gz
Wind_Speed
39 37 35 34 39 38 35 36 32 36 43 47 44 40 35 30 29 29 29 27 26 25 25 27 28 28 28 28 27 27 26 27 26 23 25 24 25 23 25 27 25 28 29
41 36 38 38 40 37 40 39 38 37 43 45 47 41 33 27 27 29 27 29 29 28 27 28 30 31 32 31 31 30 30 30 28 28 26 21 22 24 23 25 27 30 30
32 36 39 40 40 35 30 28 26 31 41 45 45 36 28 25 29 33 30 30 33 32 30 28 26 33 35 33 32 32 31 32 30 31 24 12 13 21 26 28 33 33 35
33 32 32 33 25 22 21 20 20 23 28 32 29 29 29 30 28 28 30 29 32 33 33 30 29 30 38 39 35 33 31 31 31 29 35 26 18 15 10 27 33 35 32
11 17 30 33 29 30 30 30 27 23 20 17 14 14 28 31 28 28 28 28 31 31 31 33 30 32 36 41 39 36 34 31 33 32 31 31 28 16 15 17 32 33 38
36 37 37 34 31 28 27 24 22 19 15 11 11 10 10 13 28 34 33 31 32 31 31 34 34 34 37 37 39 37 33 33 31 30 35 34 35 33 26 20 30 41 40
35 34 31 31 26 22 21 19 15 11 8 8 8 9 10 11 16 20 27 31 32 34 37 37 38 39 39 34 34 37 37 35 32 31 33 34 35 34 35 30 32 29 32
20 25 24 24 22 19 15 10 5 2 8 11 14 15 17 19 21 23 25 27 31 32 34 34 34 38 39 34 34 35 33 35 31 31 35 32 32 32 33 36 38 26 32
27 37 30 24 20 15 12 8 6 10 16 21 23 24 23 23 29 31 28 28 30 33 32 31 32 33 40 38 35 36 33 31 29 33 31 31 32 31 32 36 41 37 18
33 29 26 22 17 12 9 9 10 12 18 23 27 27 26 28 29 33 33 33 32 33 31 31 34 33 31 38 38 37 33 30 30 32 30 27 29 32 33 40 41 39 35
28 23 21 18 16 14 13 14 14 16 19 22 28 29 28 29 30 31 32 38 33 35 33 31 34 35 28 31 37 37 33 28 31 30 28 30 29 31 31 38 39 40 38
27 23 20 17 18 18 18 21 22 21 22 23 26 28 28 29 29 25 30 34 34 34 36 34 36 33 33 29 35 36 34 28 32 31 30 31 27 29 32 32 39 42 45
29 24 24 26 23 21 21 22 21 21 23 25 27 27 27 26 25 22 19 25 30 34 36 33 34 36 33 29 32 31 31 32 28 31 30 28 29 27 29 29 39 36 36
17 16 23 22 21 22 22 23 24 24 27 29 29 28 25 23 22 22 17 24 26 30 33 36 33 34 28 28 28 30 31 31 31 29 28 27 26 29 28 31 36 33 37
16 20 22 24 25 25 26 27 28 28 30 32 33 32 26 22 21 24 21 22 25 28 33 37 36 35 28 27 27 28 29 28 28 26 25 27 25 23 28 31 34 33 37
17 19 23 25 26 28 30 30 31 31 31 32 33 33 26 21 18 21 22 23 26 28 34 38 34 30 26 25 25 26 28 27 27 28 25 22 21 21 26 25 28 30 37
17 18 20 23 24 26 28 30 31 30 30 31 31 32 28 23 19 20 21 26 28 29 36 40 36 29 25 22 21 25 27 27 26 28 25 22 21 19 26 33 30 35 36
18 18 21 21 22 23 26 28 30 31 31 31 32 32 30 25 22 20 24 28 28 31 42 38 37 26 26 22 22 24 25 24 21 22 21 21 20 22 23 29 32 33 34
16 14 16 17 19 22 25 27 30 33 34 34 34 35 32 26 21 20 24 27 28 33 37 38 33 28 24 23 23 25 24 23 21 19 19 18 18 20 19 21 28 33 24
16 16 17 18 20 23 24 25 28 31 33 34 31 30 28 24 19 19 21 29 35 40 39 32 27 28 25 24 24 24 24 23 22 21 20 19 19 19 20 20 20 21 24
17 16 16 20 21 21 23 25 27 30 29 28 26 25 23 20 16 16 14 26 39 40 40 35 32 30 27 26 26 24 23 23 23 23 22 20 19 19 18 18 19 20 22
16 16 16 17 19 20 22 25 27 26 26 25 24 24 23 19 15 14 12 23 37 40 35 36 35 35 32 30 29 26 24 23 23 24 23 23 23 21 20 19 20 20 20
15 15 16 16 18 20 21 22 24 24 24 24 24 23 21 19 16 11 6 14 27 35 37 36 37 36 34 34 32 30 29 26 25 24 23 21 22 23 23 24 24 25 24
17 16 16 17 19 20 20 20 21 22 22 23 23 22 24 25 25 25 16 4 17 26 29 32 30 28 29 32 34 36 33 32 29 26 24 23 22 23 24 25 23 21 21
15 15 16 17 18 17 19 19 19 20 21 22 22 22 24 26 32 34 35 29 24 19 22 22 22 22 22 19 21 25 29 30 27 24 20 19 18 17 17 17 17 17 18
14 14 14 14 16 16 16 17 18 18 18 20 22 22 22 24 29 34 35 36 34 31 28 27 24 25 24 21 18 18 19 21 21 20 21 24 24 23 22 19 20 19 18

GFSMW_850_spd_123.txt.gz
Wind_Speed
44 42 36 34 31 32 34 44 39 33 36 42 43 41 39 36 32 29 27 26 25 24 23 23 23 26 27 27 26 25 25 23 22 20 23 24 24 25 25 24 23 28 30
43 37 35 36 35 35 36 36 38 35 36 41 42 44 43 38 35 28 23 24 27 25 24 23 23 26 28 28 28 27 28 27 25 23 24 20 24 26 27 28 26 28 29
42 40 34 35 34 33 39 41 38 36 35 41 46 47 43 42 32 27 26 26 25 27 26 25 23 24 27 28 31 32 31 30 28 28 24 11 17 19 28 26 29 28 29
30 28 19 24 28 34 38 41 32 36 40 42 43 42 42 39 35 30 26 25 26 28 28 28 25 25 26 26 31 33 32 32 32 29 31 31 24 13 15 20 28 29 33
16 15 14 17 19 22 25 25 25 27 31 33 30 30 27 28 25 27 27 26 25 29 31 30 27 29 31 30 29 33 37 36 35 32 32 30 32 31 20 18 24 26 31
24 28 39 41 40 38 35 33 30 27 23 23 24 26 23 31 33 31 27 27 28 28 30 32 29 27 30 32 31 30 36 39 35 34 30 34 31 36 31 22 20 25 31
31 31 42 41 37 36 33 30 25 23 18 16 14 13 15 16 21 23 27 31 31 32 33 34 33 31 32 34 33 33 34 38 37 38 31 32 32 35 37 35 28 24 30
33 31 33 35 32 31 27 23 19 16 12 8 5 6 10 14 17 19 22 25 28 30 29 32 35 35 33 33 34 36 37 35 39 37 34 32 30 34 35 32 32 24 27
30 29 30 28 28 25 21 16 13 10 6 3 3 7 12 15 18 22 26 31 30 30 31 30 34 35 33 33 33 37 40 35 33 34 36 34 31 33 31 31 33 33 18
29 27 27 25 22 20 17 12 9 7 8 9 11 13 13 15 17 21 23 28 31 33 34 34 32 33 35 32 31 34 39 34 34 34 33 30 31 31 30 32 31 30 33
25 27 27 22 21 19 16 14 8 6 10 14 16 18 20 21 21 22 26 29 31 33 38 38 35 34 31 32 34 33 40 38 36 34 32 27 30 29 29 27 30 32 36
23 25 28 26 22 17 14 12 10 11 14 17 19 22 24 25 26 27 27 28 31 33 37 38 37 34 32 32 33 34 34 37 38 33 29 28 28 29 30 28 30 29 36
20 25 28 26 24 24 23 21 20 18 17 18 19 21 22 25 25 27 27 26 24 25 31 37 37 35 35 34 33 34 33 33 39 33 28 30 29 28 29 30 27 27 28
18 24 29 28 28 28 27 25 24 22 21 21 22 22 23 26 26 27 25 23 22 19 26 34 35 35 35 35 34 35 33 33 34 30 26 28 30 29 27 29 28 30 27
33 32 30 27 25 27 27 26 25 27 26 25 25 26 26 26 25 26 23 22 24 22 26 29 33 34 35 36 37 34 33 33 30 30 29 28 27 24 26 28 29 29 31
21 23 21 22 23 27 26 27 29 28 27 28 27 27 28 27 24 23 22 23 27 25 25 29 31 34 36 35 34 35 32 30 31 31 30 29 25 25 26 25 28 29 34
14 16 19 21 23 24 25 26 27 27 28 29 29 29 29 29 25 22 21 20 23 25 26 29 31 32 39 34 36 30 28 30 30 28 28 26 24 21 22 25 22 25 28
16 16 19 22 24 25 26 26 26 27 28 30 32 33 33 32 28 23 21 20 23 25 26 29 30 37 35 35 30 28 29 29 27 26 26 25 22 23 24 21 26 33 33
17 17 20 21 21 23 25 26 27 28 30 33 34 35 35 35 32 28 22 20 23 26 28 28 31 35 33 31 30 28 28 28 27 25 24 25 23 22 22 23 26 32 30
19 19 19 19 20 22 24 25 27 30 33 35 34 34 34 33 32 29 25 19 20 23 30 26 35 36 37 34 31 30 30 28 26 24 23 22 21 20 21 22 23 23 27
19 17 17 19 22 21 23 25 28 31 31 32 31 31 32 31 30 27 24 18 15 19 28 28 31 41 33 32 30 31 32 30 27 25 24 22 20 20 19 18 19 19 20
21 21 20 21 20 21 23 24 27 27 27 28 29 30 31 31 27 22 18 16 14 15 22 36 38 31 33 29 30 30 26 25 24 25 23 22 21 20 20 18 18 18 18
20 18 19 18 19 21 23 24 26 26 27 27 28 28 30 31 29 24 18 15 6 10 16 22 32 32 33 35 32 29 26 25 24 25 24 23 23 22 23 22 21 21 22
18 17 17 19 20 20 20 21 23 24 26 26 26 26 28 31 33 30 29 25 17 7 3 9 18 25 29 34 36 33 30 28 26 23 23 24 25 26 25 24 24 24 24
14 14 15 17 19 19 20 20 23 24 25 24 23 23 24 26 30 34 34 33 31 20 19 18 15 14 15 18 22 31 31 31 30 27 25 24 23 24 22 22 23 22 22
13 13 14 16 18 19 20 21 22 23 24 23 23 22 21 23 25 26 29 30 30 30 26 23 23 24 20 16 10 15 22 26 25 24 23 22 22 21 20 18 18 18 19

GFSMW_850_spd_126.txt.gz
Wind_Speed
44 39 39 45 43 48 51 52 46 44 45 45 43 42 42 40 38 36 34 30 29 26 25 24 22 23 26 25 24 24 25 25 23 20 20 19 21 23 24 21 22 23 25
41 40 43 46 44 45 50 57 52 46 47 47 43 44 40 39 38 36 34 31 27 26 26 25 23 24 25 26 25 26 26 26 24 24 21 16 21 27 27 25 25 23 26
42 39 41 46 44 42 35 42 43 43 47 49 47 45 42 40 39 38 37 32 29 26 25 23 24 25 25 26 24 27 27 28 27 27 22 12 15 13 17 22 24 26 28
42 42 39 36 41 45 42 40 41 43 44 46 44 44 43 42 41 41 37 31 27 24 22 25 24 25 26 26 26 27 26 28 32 28 30 30 24 12 9 13 19 19 26
41 31 28 26 27 26 27 30 35 39 41 38 38 39 38 37 36 34 33 32 25 22 24 26 26 27 28 25 25 24 25 28 32 33 31 32 33 34 29 22 19 23 22
22 27 26 24 22 17 19 23 28 33 33 33 29 29 27 30 28 27 29 33 23 24 29 27 27 29 28 28 28 29 28 30 29 33 37 36 33 34 32 31 32 31 29
35 36 38 39 37 35 33 30 29 28 24 24 25 24 23 22 25 21 24 23 27 36 34 33 33 34 32 33 29 32 31 31 29 29 36 37 34 31 28 28 28 31 26
37 39 40 41 39 35 35 33 30 29 25 22 19 16 14 13 13 17 22 22 40 46 40 40 36 34 35 35 35 33 31 31 33 32 33 37 35 32 29 29 29 24 21
33 35 35 34 33 31 31 29 26 24 20 15 12 11 9 10 12 14 17 24 29 30 31 34 35 37 37 36 36 36 34 33 32 35 35 34 35 33 30 28 29 29 17
29 32 31 31 29 27 27 23 20 19 16 11 7 3 4 8 12 15 20 24 29 34 35 36 38 39 39 39 37 37 35 32 33 36 37 35 33 32 32 28 27 26 25
27 30 28 27 27 27 25 24 21 17 12 10 9 10 11 11 13 16 20 24 29 33 35 36 40 42 43 41 39 37 37 34 33 35 37 34 33 32 33 28 27 27 28
27 31 29 26 29 31 27 22 21 17 15 12 12 14 16 17 18 19 20 24 28 31 33 34 37 42 44 42 40 37 34 36 34 35 37 34 32 32 29 26 29 28 26
29 27 27 34 36 31 25 23 21 20 16 14 13 13 14 16 19 21 23 25 27 30 31 32 34 40 42 43 41 37 32 34 38 35 36 36 36 31 28 27 29 29 24
30 34 37 35 34 32 28 24 22 21 19 18 17 17 18 19 21 23 24 26 25 27 29 28 28 31 36 40 40 38 36 35 36 35 31 36 37 30 28 29 28 27 24
31 32 32 32 31 29 27 25 23 23 24 25 25 24 22 21 22 24 25 26 26 26 27 29 27 27 33 37 36 36 35 36 36 33 32 34 31 27 28 30 28 27 25
26 27 28 29 29 27 25 23 24 27 25 25 25 27 27 25 25 25 25 24 25 25 26 28 27 27 27 32 33 34 35 37 34 34 32 31 26 27 27 27 26 25 25
22 26 28 26 24 25 25 27 29 28 27 28 29 30 30 31 30 28 25 22 21 24 24 29 27 27 32 32 32 35 31 33 34 32 35 29 28 29 27 25 24 22 22
27 26 25 22 24 24 26 26 28 28 29 29 31 33 34 35 33 31 28 23 21 22 24 26 27 28 29 29 30 27 30 32 35 31 28 29 30 31 26 23 24 24 21
23 21 23 24 23 25 25 26 27 28 29 32 33 35 37 36 35 33 30 25 22 19 19 24 27 27 27 27 30 27 38 35 29 26 29 30 29 30 28 25 23 23 25
22 24 23 23 24 24 24 26 28 29 31 32 33 33 35 35 35 33 31 28 24 18 16 19 24 28 27 30 28 32 39 36 29 28 29 28 26 26 27 26 27 27 25
23 22 22 22 22 23 24 26 27 30 30 28 28 30 33 34 33 31 28 27 23 17 15 16 22 30 24 30 27 36 38 31 29 30 29 26 25 25 24 23 24 24 25
23 21 21 21 22 22 24 27 29 27 27 26 27 29 31 32 32 31 28 26 23 19 16 11 13 19 20 27 28 40 33 28 30 30 29 27 26 24 22 22 21 21 21
20 19 20 21 23 23 24 25 26 26 24 25 26 28 29 31 33 34 34 31 26 23 18 11 5 6 13 22 29 30 29 26 29 30 28 28 25 23 24 22 21 20 20
22 22 21 22 23 24 24 24 24 24 23 24 26 27 28 29 32 34 34 35 36 31 26 20 12 8 3 8 25 30 28 26 28 29 27 24 25 25 24 23 22 20 20
18 19 21 22 23 23 23 24 24 24 25 24 26 28 28 28 30 31 32 32 32 31 30 27 22 15 13 13 1 17 25 28 30 29 28 28 27 27 24 23 23 23 23
17 18 19 20 21 22 22 22 23 23 22 23 24 25 26 26 28 29 27 28 28 27 27 25 25 22 18 11 9 4 13 21 30 28 29 26 24 24 23 21 20 20 20

GFSMW_850_spd_129.txt.gz
Wind_Speed
55 43 38 47 39 39 44 42 41 51 55 55 52 49 47 46 43 40 38 36 34 33 31 31 29 29 29 28 28 27 27 25 23 20 21 21 20 21 22 21 20 19 17
46 50 40 44 45 40 42 44 44 43 53 56 53 51 47 46 44 43 42 40 38 35 32 32 31 29 28 28 29 30 29 26 26 25 23 19 21 26 26 25 24 22 21
46 46 44 39 48 42 41 44 44 44 51 54 53 50 46 43 44 45 44 43 39 35 33 33 31 29 28 28 28 30 30 29 27 27 23 10 14 11 14 21 24 24 22
50 46 47 34 37 41 40 40 44 46 47 54 53 50 46 45 44 43 44 40 38 34 30 31 30 28 26 28 28 28 28 28 31 27 30 31 20 9 6 11 12 13 17
41 37 33 31 30 34 34 36 41 40 45 50 50 47 45 43 41 39 37 36 35 34 32 30 23 23 26 28 30 27 28 31 31 29 30 32 34 32 25 15 17 21 23
5 6 11 12 17 20 26 32 34 37 36 37 38 36 38 37 34 31 30 30 34 36 33 35 29 35 28 31 30 31 30 31 31 31 30 32 34 36 34 31 27 26 23
27 25 24 22 20 23 29 30 29 29 27 28 29 28 26 25 26 26 26 25 26 28 33 25 30 31 32 35 38 35 33 33 35 34 32 31 30 32 33 31 27 26 24
33 35 30 28 26 24 35 31 29 28 25 25 25 25 23 24 23 26 24 23 23 21 20 20 25 30 34 40 44 39 36 33 35 36 37 33 29 27 32 35 29 24 24
33 33 33 35 27 33 38 35 31 29 26 23 20 19 19 18 20 21 22 23 25 25 25 26 31 38 42 43 45 43 39 37 36 35 37 36 34 30 29 34 32 28 20
32 32 34 31 30 34 33 29 29 25 25 22 19 16 14 12 14 15 17 20 23 26 30 31 34 37 38 37 38 41 40 40 39 38 38 36 35 37 31 31 33 31 27
32 33 31 31 32 32 30 28 23 18 20 16 14 11 9 8 8 10 15 20 24 27 31 34 36 38 39 40 41 42 41 42 39 39 39 37 37 38 34 32 32 32 29
33 32 35 33 33 31 29 29 26 24 21 16 12 5 2 4 9 12 16 20 24 29 32 34 37 39 40 41 44 44 44 42 42 43 40 40 36 36 34 33 33 32 30
34 37 38 37 34 31 30 28 27 27 24 22 18 12 9 7 9 13 15 19 22 25 28 33 37 38 38 40 43 46 43 43 42 43 40 40 36 36 37 34 34 33 30
33 33 35 36 34 29 29 29 30 25 21 19 19 17 15 12 11 13 17 21 24 26 28 29 33 37 38 37 39 42 41 43 45 42 37 38 38 34 39 37 35 31 31
35 38 38 38 36 40 37 33 32 26 21 18 20 23 21 20 18 17 19 21 24 26 28 31 32 33 33 32 31 33 38 43 45 43 35 37 38 35 36 38 37 31 29
33 34 35 38 38 37 34 33 30 28 25 24 25 27 25 23 22 21 20 20 21 23 25 28 31 31 32 32 32 32 37 41 42 41 39 38 38 36 32 37 34 31 32
31 34 34 35 34 33 31 32 31 29 28 30 29 27 26 26 26 26 25 24 23 23 22 24 26 29 29 32 29 29 36 38 40 37 37 37 37 35 28 33 29 30 29
29 30 30 29 27 26 27 27 27 27 28 28 29 30 30 30 30 29 28 26 24 22 21 22 22 26 29 28 26 30 29 34 38 35 36 37 34 37 34 31 31 28 28
21 23 23 22 23 24 25 25 28 29 29 28 30 32 33 31 32 30 30 29 27 24 21 20 20 22 26 26 27 27 32 34 35 35 33 39 34 35 30 32 31 29 31
21 23 21 21 22 24 26 28 27 28 30 31 30 30 31 32 33 34 32 28 26 24 23 20 17 18 22 23 25 27 28 32 33 35 34 30 34 29 32 32 32 32 31
20 20 20 22 23 23 25 26 26 26 26 26 26 27 29 31 33 32 31 30 27 23 21 19 15 15 16 27 30 29 28 32 38 32 35 35 32 30 32 31 32 31 28
19 19 20 22 22 23 24 24 25 24 24 23 24 26 29 31 31 32 33 32 30 27 24 21 16 14 14 17 26 27 31 37 38 40 37 33 30 29 30 30 27 26 28
18 18 19 20 22 22 23 23 23 23 23 23 25 26 27 29 31 34 34 35 35 33 31 29 25 21 18 16 16 18 24 33 39 37 32 30 32 31 30 28 29 27 27
18 18 19 21 23 23 23 23 22 21 21 23 25 26 28 28 29 29 31 32 35 35 34 33 30 25 22 20 14 7 17 27 36 34 35 33 32 31 32 30 27 26 25
16 18 20 21 22 22 22 22 22 21 21 22 23 24 25 27 27 27 27 26 25 26 29 30 29 30 28 25 19 12 5 16 26 30 32 29 31 31 29 27 26 26 24
16 17 19 20 21 21 21 21 22 22 22 21 22 23 23 24 25 25 24 24 25 24 24 24 26 24 23 20 16 9 5 3 12 19 24 27 27 26 27 26 26 25 26